DLH420 SAEZ-SAWH

Flight info

Callsign DLH420
Flight time N/A
Altitude 40000
Route GBE6 GBE UZ117 DIL UT662 ASKAS UT704 DABLI DABLI2
Aircraft B748/H-SDE3FGHIM1M2RWXY/LB1

Departure

Time 2026-05-07 20:18
Airport Ezeiza International Airport - Ministro Pistarini (SAEZ)

Arrival

Time N/A
Airport Ushuaia - Malvinas Argentinas International Airport (SAWH)
Time Latitude Longitude Altitude Speed Heading
2026-05-07 20:00 -34.81606 -58.53986 84 ft 0 kts 318°
2026-05-07 20:08 -34.81618 -58.53973 84 ft 4 kts 314°
2026-05-07 20:08 -34.81637 -58.53949 84 ft 4 kts 308°
2026-05-07 20:08 -34.81653 -58.53923 84 ft 4 kts 306°
2026-05-07 20:08 -34.81669 -58.53897 84 ft 4 kts 315°
2026-05-07 20:09 -34.81685 -58.53879 84 ft 4 kts 346°
2026-05-07 20:09 -34.81704 -58.53873 84 ft 4 kts 15°
2026-05-07 20:09 -34.81718 -58.53878 84 ft 4 kts 58°
2026-05-07 20:10 -34.81734 -58.53911 84 ft 2 kts 56°
2026-05-07 20:12 -34.81731 -58.53906 84 ft 2 kts 56°
2026-05-07 20:13 -34.81719 -58.53880 84 ft 5 kts 64°
2026-05-07 20:13 -34.81710 -58.53828 84 ft 8 kts 86°
2026-05-07 20:13 -34.81724 -58.53755 82 ft 10 kts 117°
2026-05-07 20:13 -34.81783 -58.53697 84 ft 12 kts 153°
2026-05-07 20:14 -34.81870 -58.53644 84 ft 15 kts 151°
2026-05-07 20:14 -34.81922 -58.53530 82 ft 18 kts 104°
2026-05-07 20:14 -34.81955 -58.53370 81 ft 21 kts 104°
2026-05-07 20:14 -34.81993 -58.53180 84 ft 25 kts 103°
2026-05-07 20:15 -34.82035 -58.52969 81 ft 27 kts 103°
2026-05-07 20:15 -34.82083 -58.52732 84 ft 30 kts 104°
2026-05-07 20:15 -34.82136 -58.52472 82 ft 33 kts 104°
2026-05-07 20:15 -34.82189 -58.52197 81 ft 32 kts 102°
2026-05-07 20:16 -34.82236 -58.51941 83 ft 30 kts 103°
2026-05-07 20:16 -34.82289 -58.51793 85 ft 11 kts 155°
2026-05-07 20:16 -34.82349 -58.51790 84 ft 7 kts 186°
2026-05-07 20:16 -34.82410 -58.51802 81 ft 10 kts 190°
2026-05-07 20:17 -34.82491 -58.51821 84 ft 13 kts 192°
2026-05-07 20:17 -34.82525 -58.51857 85 ft 3 kts 242°
2026-05-07 20:17 -34.82520 -58.51932 82 ft 22 kts 281°
2026-05-07 20:17 -34.82423 -58.52474 83 ft 114 kts 282°
2026-05-07 20:18 -34.82193 -58.53770 238 ft 190 kts 282°
2026-05-07 20:18 -34.81896 -58.55431 1320 ft 205 kts 277°
2026-05-07 20:18 -34.81604 -58.57076 2938 ft 186 kts 273°
2026-05-07 20:18 -34.81850 -58.58551 4164 ft 191 kts 238°
2026-05-07 20:19 -34.82992 -58.59587 4892 ft 226 kts 202°
2026-05-07 20:19 -34.84681 -58.59634 5609 ft 264 kts 171°
2026-05-07 20:19 -34.86506 -58.58935 6580 ft 283 kts 163°
2026-05-07 20:19 -34.88400 -58.58091 7688 ft 296 kts 161°
2026-05-07 20:20 -34.90313 -58.57198 8982 ft 304 kts 160°
2026-05-07 20:20 -34.92309 -58.56248 10175 ft 314 kts 159°
2026-05-07 20:20 -34.94428 -58.55220 10911 ft 339 kts 159°
2026-05-07 20:20 -34.96688 -58.54110 11738 ft 359 kts 159°
2026-05-07 20:21 -34.99059 -58.52934 12632 ft 377 kts 160°
2026-05-07 20:21 -35.01546 -58.51722 13527 ft 392 kts 161°
2026-05-07 20:21 -35.04169 -58.50629 14295 ft 404 kts 170°
2026-05-07 20:21 -35.06971 -58.50206 15062 ft 414 kts 181°
2026-05-07 20:22 -35.09891 -58.50106 15833 ft 427 kts 184°
2026-05-07 20:22 -35.12918 -58.50081 16599 ft 439 kts 185°
2026-05-07 20:22 -35.16022 -58.49985 17190 ft 452 kts 182°
2026-05-07 20:22 -35.19195 -58.49727 17773 ft 460 kts 181°
2026-05-07 20:23 -35.22422 -58.49508 18296 ft 466 kts 183°
2026-05-07 20:23 -35.25650 -58.49343 18780 ft 473 kts 184°
2026-05-07 20:23 -35.28961 -58.49190 19283 ft 479 kts 184°
2026-05-07 20:23 -35.32325 -58.49016 19775 ft 486 kts 182°
2026-05-07 20:24 -35.35700 -58.48771 20244 ft 492 kts 182°
2026-05-07 20:24 -35.39149 -58.48590 20718 ft 498 kts 184°
2026-05-07 20:24 -35.42641 -58.48425 21173 ft 505 kts 183°
2026-05-07 20:24 -35.46178 -58.48171 21640 ft 511 kts 182°
2026-05-07 20:25 -35.49751 -58.47979 22079 ft 516 kts 183°
2026-05-07 20:25 -35.53365 -58.47806 22511 ft 523 kts 182°
2026-05-07 20:25 -35.56984 -58.47542 22939 ft 529 kts 182°
2026-05-07 20:25 -35.60675 -58.47348 23326 ft 533 kts 183°
2026-05-07 20:26 -35.64419 -58.47164 23691 ft 539 kts 182°
2026-05-07 20:26 -35.68197 -58.46888 24051 ft 544 kts 182°
2026-05-07 20:26 -35.71998 -58.46699 24397 ft 548 kts 183°
2026-05-07 20:26 -35.75783 -58.46490 24744 ft 554 kts 181°
2026-05-07 20:27 -35.79632 -58.46487 25058 ft 550 kts 193°
2026-05-07 20:27 -35.83321 -58.47550 25407 ft 537 kts 208°
2026-05-07 20:27 -35.86592 -58.49599 25737 ft 521 kts 224°
2026-05-07 20:27 -35.89416 -58.52342 26070 ft 515 kts 231°
2026-05-07 20:28 -35.92170 -58.55122 26352 ft 526 kts 226°
2026-05-07 20:28 -35.95481 -58.57349 26678 ft 553 kts 210°
2026-05-07 20:28 -35.99142 -58.58960 26999 ft 561 kts 207°
2026-05-07 20:28 -36.02837 -58.60612 27295 ft 563 kts 209°
2026-05-07 20:29 -36.06457 -58.62455 27591 ft 562 kts 213°
2026-05-07 20:29 -36.10045 -58.64429 27869 ft 568 kts 212°
2026-05-07 20:29 -36.13687 -58.66248 28146 ft 575 kts 210°
2026-05-07 20:29 -36.17409 -58.68102 28432 ft 577 kts 211°
2026-05-07 20:30 -36.21124 -58.70061 28692 ft 580 kts 212°
2026-05-07 20:30 -36.24877 -58.72023 28961 ft 586 kts 210°
2026-05-07 20:30 -36.28625 -58.73889 29221 ft 589 kts 211°
2026-05-07 20:30 -36.32420 -58.75885 29506 ft 591 kts 212°
2026-05-07 20:31 -36.36224 -58.77876 29824 ft 595 kts 210°
2026-05-07 20:31 -36.40071 -58.79800 30248 ft 593 kts 211°
2026-05-07 20:31 -36.43825 -58.81780 30694 ft 590 kts 212°
2026-05-07 20:31 -36.47599 -58.83765 31096 ft 591 kts 210°
2026-05-07 20:32 -36.51419 -58.85680 31548 ft 589 kts 211°
2026-05-07 20:32 -36.56827 -58.88550 32240 ft 585 kts 212°
2026-05-07 20:32 -36.60946 -58.90668 32672 ft 584 kts 210°
2026-05-07 20:32 -36.63963 -58.92136 32928 ft 579 kts 209°
2026-05-07 20:33 -36.65845 -58.93039 33110 ft 578 kts 209°
2026-05-07 20:33 -36.67726 -58.93939 33280 ft 578 kts 208°
2026-05-07 20:33 -36.69582 -58.94827 33453 ft 578 kts 208°
2026-05-07 20:33 -36.71461 -58.95729 33622 ft 578 kts 208°
2026-05-07 20:34 -36.73342 -58.96633 33783 ft 577 kts 208°
2026-05-07 20:34 -36.75211 -58.97538 33929 ft 576 kts 208°
2026-05-07 20:34 -36.77077 -58.98448 34086 ft 575 kts 208°
2026-05-07 20:34 -36.78939 -58.99362 34235 ft 573 kts 208°
2026-05-07 20:35 -36.80796 -59.00279 34394 ft 572 kts 208°
2026-05-07 20:35 -36.82620 -59.01188 34538 ft 571 kts 208°
2026-05-07 20:35 -36.84464 -59.02114 34693 ft 569 kts 208°
2026-05-07 20:35 -36.86305 -59.03043 34852 ft 568 kts 208°
2026-05-07 20:36 -36.88134 -59.03974 35011 ft 566 kts 208°
2026-05-07 20:36 -36.89937 -59.04898 35170 ft 564 kts 208°
2026-05-07 20:36 -36.91750 -59.05836 36803 ft 562 kts 208°
2026-05-07 20:36 -36.93554 -59.06776 37782 ft 561 kts 208°
2026-05-07 20:37 -36.95356 -59.07722 37941 ft 559 kts 208°
2026-05-07 20:37 -36.97148 -59.08669 38107 ft 557 kts 208°
2026-05-07 20:37 -36.98933 -59.09619 38268 ft 555 kts 209°
2026-05-07 20:37 -37.00684 -59.10557 38440 ft 553 kts 209°
2026-05-07 20:38 -37.02451 -59.11509 38598 ft 552 kts 209°
2026-05-07 20:38 -37.04212 -59.12464 38770 ft 550 kts 209°
2026-05-07 20:38 -37.05963 -59.13420 38933 ft 548 kts 209°
2026-05-07 20:38 -37.07706 -59.14377 39105 ft 546 kts 209°
2026-05-07 20:39 -37.09451 -59.15339 39274 ft 545 kts 209°
2026-05-07 20:39 -37.11181 -59.16297 39449 ft 543 kts 209°
2026-05-07 20:39 -37.12906 -59.17258 39618 ft 541 kts 209°
2026-05-07 20:39 -37.14625 -59.18219 39795 ft 540 kts 209°
2026-05-07 20:40 -37.16315 -59.19168 39973 ft 538 kts 209°
2026-05-07 20:40 -37.18026 -59.20130 40148 ft 537 kts 209°
2026-05-07 20:40 -37.19730 -59.21093 40323 ft 536 kts 209°
2026-05-07 20:40 -37.21426 -59.22055 40495 ft 534 kts 209°
2026-05-07 20:41 -37.23121 -59.23020 40651 ft 533 kts 209°
2026-05-07 20:41 -37.24786 -59.23969 40792 ft 531 kts 209°
2026-05-07 20:41 -37.26468 -59.24930 40942 ft 530 kts 209°
2026-05-07 20:41 -37.28146 -59.25889 41087 ft 529 kts 209°
2026-05-07 20:42 -37.29821 -59.26847 41232 ft 528 kts 209°
2026-05-07 20:42 -37.31493 -59.27804 41379 ft 527 kts 210°
2026-05-07 20:42 -37.33160 -59.28760 41523 ft 526 kts 210°
2026-05-07 20:42 -37.34826 -59.29715 41674 ft 525 kts 210°
2026-05-07 20:43 -37.36486 -59.30669 41831 ft 524 kts 210°
2026-05-07 20:43 -37.39809 -59.32580 41873 ft 526 kts 210°
2026-05-07 20:44 -37.43120 -59.34489 41880 ft 525 kts 210°
2026-05-07 20:44 -37.46439 -59.36408 41880 ft 525 kts 210°
2026-05-07 20:45 -37.49753 -59.38329 41893 ft 523 kts 210°
2026-05-07 20:45 -37.53060 -59.40252 41888 ft 523 kts 210°
2026-05-07 20:45 -37.54711 -59.41216 41029 ft 522 kts 210°
2026-05-07 20:46 -37.56363 -59.42182 39605 ft 522 kts 210°
2026-05-07 20:46 -37.59644 -59.44107 39601 ft 522 kts 210°
2026-05-07 20:47 -37.62930 -59.46044 39600 ft 521 kts 210°
2026-05-07 20:47 -37.66214 -59.47989 39601 ft 520 kts 210°
2026-05-07 20:48 -37.69471 -59.49925 39605 ft 520 kts 210°
2026-05-07 20:48 -37.72750 -59.51885 39611 ft 520 kts 210°
2026-05-07 20:49 -37.75998 -59.53836 39613 ft 519 kts 210°
2026-05-07 20:49 -37.79268 -59.55811 39616 ft 519 kts 210°
2026-05-07 20:50 -37.82513 -59.57780 39618 ft 519 kts 210°
2026-05-07 20:50 -37.85769 -59.59766 39618 ft 519 kts 210°
2026-05-07 20:51 -37.89016 -59.61756 39614 ft 518 kts 210°
2026-05-07 20:51 -37.92260 -59.63753 39617 ft 518 kts 210°
2026-05-07 20:52 -37.95486 -59.65747 39617 ft 518 kts 210°
2026-05-07 20:52 -37.98734 -59.67763 39618 ft 518 kts 210°
2026-05-07 20:53 -38.01954 -59.69770 39622 ft 518 kts 210°
2026-05-07 20:53 -38.04642 -59.71452 39621 ft 517 kts 210°
2026-05-07 20:54 -38.07875 -59.73482 39615 ft 517 kts 210°
2026-05-07 20:54 -38.11625 -59.75846 39617 ft 517 kts 210°
2026-05-07 20:55 -38.14304 -59.77541 39621 ft 516 kts 210°
2026-05-07 20:55 -38.17526 -59.79587 39620 ft 516 kts 210°
2026-05-07 20:56 -38.20742 -59.81636 39619 ft 516 kts 210°
2026-05-07 20:56 -38.23930 -59.83673 39614 ft 516 kts 211°
2026-05-07 20:57 -38.27139 -59.85730 39622 ft 515 kts 211°
2026-05-07 20:57 -38.30341 -59.87790 39616 ft 515 kts 211°
2026-05-07 20:58 -38.33526 -59.89845 39619 ft 515 kts 211°
2026-05-07 20:58 -38.36723 -59.91914 39611 ft 515 kts 211°
2026-05-07 20:59 -38.39919 -59.93989 39614 ft 514 kts 211°
2026-05-07 20:59 -38.43092 -59.96056 39616 ft 514 kts 211°
2026-05-07 21:00 -38.46284 -59.98142 39616 ft 514 kts 211°
2026-05-07 21:00 -38.49469 -60.00228 39617 ft 514 kts 211°
2026-05-07 21:01 -38.52632 -60.02306 39614 ft 514 kts 211°
2026-05-07 21:01 -38.55827 -60.04413 39617 ft 514 kts 211°
2026-05-07 21:02 -38.58982 -60.06501 39614 ft 514 kts 211°
2026-05-07 21:02 -38.62155 -60.08607 39613 ft 514 kts 211°
2026-05-07 21:03 -38.65329 -60.10719 39609 ft 513 kts 211°
2026-05-07 21:03 -38.68500 -60.12835 39610 ft 513 kts 211°
2026-05-07 21:04 -38.71651 -60.14943 39608 ft 513 kts 211°
2026-05-07 21:04 -38.74815 -60.17069 39612 ft 513 kts 211°
2026-05-07 21:05 -38.77978 -60.19200 39614 ft 513 kts 211°
2026-05-07 21:05 -38.81121 -60.21324 39609 ft 513 kts 211°
2026-05-07 21:06 -38.84275 -60.23463 39612 ft 512 kts 211°
2026-05-07 21:06 -38.87429 -60.25608 39606 ft 512 kts 211°
2026-05-07 21:07 -38.90562 -60.27746 39610 ft 512 kts 211°
2026-05-07 21:07 -38.93720 -60.29901 39615 ft 513 kts 211°
2026-05-07 21:08 -38.96853 -60.32035 39608 ft 513 kts 212°
2026-05-07 21:08 -39.00016 -60.34187 39612 ft 513 kts 212°
2026-05-07 21:09 -39.03178 -60.36334 39616 ft 513 kts 212°
2026-05-07 21:09 -39.06327 -60.38468 39607 ft 514 kts 212°
2026-05-07 21:10 -39.09492 -60.40611 39610 ft 513 kts 212°
2026-05-07 21:10 -39.12662 -60.42757 39609 ft 513 kts 212°
2026-05-07 21:11 -39.15805 -60.44886 39615 ft 513 kts 212°
2026-05-07 21:11 -39.20551 -60.48106 39605 ft 513 kts 212°
2026-05-07 21:12 -39.23707 -60.50251 39611 ft 512 kts 212°
2026-05-07 21:12 -39.26844 -60.52389 39611 ft 512 kts 212°
2026-05-07 21:13 -39.30000 -60.54540 39619 ft 512 kts 212°
2026-05-07 21:13 -39.33138 -60.56682 39611 ft 512 kts 212°
2026-05-07 21:14 -39.36286 -60.58834 39613 ft 512 kts 212°
2026-05-07 21:14 -39.39439 -60.60994 39618 ft 511 kts 212°
2026-05-07 21:15 -39.42582 -60.63151 39616 ft 511 kts 212°
2026-05-07 21:15 -39.45707 -60.65298 39622 ft 510 kts 212°
2026-05-07 21:16 -39.48842 -60.67457 39620 ft 509 kts 212°
2026-05-07 21:16 -39.51951 -60.69605 39622 ft 509 kts 212°
2026-05-07 21:17 -39.55074 -60.71764 39621 ft 508 kts 212°
2026-05-07 21:17 -39.58192 -60.73925 39623 ft 507 kts 212°
2026-05-07 21:18 -39.61306 -60.76091 39623 ft 507 kts 212°
2026-05-07 21:18 -39.64397 -60.78249 39628 ft 506 kts 212°
2026-05-07 21:19 -39.67498 -60.80419 39626 ft 505 kts 212°
2026-05-07 21:19 -39.70570 -60.82579 39626 ft 504 kts 212°
2026-05-07 21:20 -39.73655 -60.84750 39631 ft 503 kts 213°
2026-05-07 21:20 -39.76731 -60.86924 39625 ft 503 kts 212°
2026-05-07 21:21 -39.79808 -60.89099 39626 ft 502 kts 212°
2026-05-07 21:21 -39.82854 -60.91263 39628 ft 501 kts 213°
2026-05-07 21:22 -39.85919 -60.93443 39629 ft 501 kts 213°
2026-05-07 21:22 -39.88963 -60.95615 39620 ft 500 kts 213°
2026-05-07 21:23 -39.92004 -60.97790 39626 ft 500 kts 213°
2026-05-07 21:23 -39.95051 -60.99976 39634 ft 499 kts 213°
2026-05-07 21:24 -39.98097 -61.02168 39635 ft 499 kts 212°
2026-05-07 21:24 -40.01141 -61.04365 39636 ft 499 kts 213°
2026-05-07 21:25 -40.04159 -61.06551 39632 ft 498 kts 212°
2026-05-07 21:25 -40.07195 -61.08760 39637 ft 498 kts 212°
2026-05-07 21:26 -40.10208 -61.10955 39638 ft 497 kts 213°
2026-05-07 21:26 -40.13232 -61.13167 39632 ft 497 kts 213°
2026-05-07 21:27 -40.16232 -61.15369 39633 ft 497 kts 213°
2026-05-07 21:27 -40.19243 -61.17587 39636 ft 496 kts 213°
2026-05-07 21:28 -40.22251 -61.19808 39642 ft 496 kts 213°
2026-05-07 21:28 -40.25256 -61.22036 39637 ft 495 kts 213°
2026-05-07 21:29 -40.28239 -61.24252 39641 ft 495 kts 213°
2026-05-07 21:29 -40.31233 -61.26485 39637 ft 495 kts 213°
2026-05-07 21:30 -40.34228 -61.28722 39644 ft 495 kts 213°
2026-05-07 21:30 -40.37198 -61.30951 39643 ft 494 kts 213°
2026-05-07 21:31 -40.40186 -61.33200 39644 ft 494 kts 213°
2026-05-07 21:31 -40.43167 -61.35454 39645 ft 494 kts 213°
2026-05-07 21:32 -40.46130 -61.37702 39643 ft 493 kts 213°
2026-05-07 21:32 -40.49102 -61.39965 39646 ft 492 kts 213°
2026-05-07 21:33 -40.52043 -61.42214 39647 ft 491 kts 213°
2026-05-07 21:33 -40.55003 -61.44484 39647 ft 491 kts 213°
2026-05-07 21:34 -40.57955 -61.46758 39650 ft 491 kts 213°
2026-05-07 21:34 -40.60889 -61.49024 39649 ft 491 kts 213°
2026-05-07 21:35 -40.63828 -61.51306 39647 ft 490 kts 214°
2026-05-07 21:35 -40.66764 -61.53597 39653 ft 489 kts 214°
2026-05-07 21:36 -40.69684 -61.55879 39648 ft 489 kts 214°
2026-05-07 21:36 -40.72613 -61.58177 39648 ft 489 kts 214°
2026-05-07 21:37 -40.75526 -61.60469 39653 ft 488 kts 214°
2026-05-07 21:37 -40.78445 -61.62773 39651 ft 488 kts 214°
2026-05-07 21:38 -40.81342 -61.65069 39655 ft 488 kts 214°
2026-05-07 21:38 -40.84252 -61.67383 39653 ft 487 kts 214°
2026-05-07 21:39 -40.87142 -61.69689 39655 ft 486 kts 214°
2026-05-07 21:39 -40.90035 -61.72005 39651 ft 486 kts 214°
2026-05-07 21:40 -40.92931 -61.74332 39658 ft 485 kts 214°
2026-05-07 21:40 -40.95802 -61.76646 39654 ft 485 kts 214°
2026-05-07 21:41 -40.98686 -61.78979 39657 ft 484 kts 214°
2026-05-07 21:41 -41.01545 -61.81304 39658 ft 484 kts 214°
2026-05-07 21:42 -41.04417 -61.83645 39659 ft 483 kts 214°
2026-05-07 21:42 -41.07277 -61.85985 39656 ft 483 kts 214°
2026-05-07 21:43 -41.10133 -61.88329 39659 ft 482 kts 214°
2026-05-07 21:43 -41.12980 -61.90675 39661 ft 483 kts 214°
2026-05-07 21:44 -41.15355 -61.92636 39659 ft 482 kts 214°
2026-05-07 21:44 -41.18659 -61.95373 39662 ft 482 kts 214°
2026-05-07 21:45 -41.21040 -61.97350 39667 ft 482 kts 214°
2026-05-07 21:45 -41.23864 -61.99700 39663 ft 481 kts 214°
2026-05-07 21:46 -41.26706 -62.02071 39655 ft 480 kts 214°
2026-05-07 21:46 -41.29521 -62.04427 39670 ft 480 kts 214°
2026-05-07 21:47 -41.32353 -62.06805 39659 ft 480 kts 214°
2026-05-07 21:47 -41.35167 -62.09178 39661 ft 480 kts 214°
2026-05-07 21:48 -41.37989 -62.11565 39664 ft 480 kts 214°
2026-05-07 21:48 -41.40803 -62.13954 39664 ft 478 kts 214°
2026-05-07 21:49 -41.43593 -62.16330 39667 ft 479 kts 215°
2026-05-07 21:49 -41.46408 -62.18736 39663 ft 479 kts 215°
2026-05-07 21:50 -41.49202 -62.21131 39665 ft 479 kts 215°
2026-05-07 21:50 -41.52004 -62.23541 39667 ft 477 kts 215°
2026-05-07 21:51 -41.54777 -62.25931 39665 ft 477 kts 215°
2026-05-07 21:51 -41.57563 -62.28341 39669 ft 476 kts 215°
2026-05-07 21:52 -41.60351 -62.30761 39672 ft 476 kts 215°
2026-05-07 21:52 -41.63112 -62.33169 39674 ft 476 kts 215°
2026-05-07 21:53 -41.65886 -62.35597 39672 ft 475 kts 215°
2026-05-07 21:53 -41.68654 -62.38028 39672 ft 475 kts 215°
2026-05-07 21:54 -41.71408 -62.40456 39675 ft 474 kts 215°
2026-05-07 21:54 -41.74139 -62.42873 39671 ft 473 kts 215°
2026-05-07 21:55 -41.76880 -62.45306 39673 ft 472 kts 215°
2026-05-07 21:55 -41.79621 -62.47747 39678 ft 473 kts 215°
2026-05-07 21:56 -41.82356 -62.50190 39682 ft 472 kts 215°
2026-05-07 21:56 -41.85096 -62.52646 39682 ft 472 kts 216°
2026-05-07 21:57 -41.87809 -62.55084 39678 ft 472 kts 216°
2026-05-07 21:57 -41.90542 -62.57547 39682 ft 471 kts 215°
2026-05-07 21:58 -41.93253 -62.59998 39682 ft 471 kts 216°
2026-05-07 21:58 -41.95968 -62.62464 39679 ft 470 kts 216°
2026-05-07 21:59 -41.98669 -62.64924 39681 ft 471 kts 216°
2026-05-07 21:59 -42.01381 -62.67400 39686 ft 470 kts 216°
2026-05-07 22:00 -42.04086 -62.69876 39685 ft 469 kts 216°
2026-05-07 22:00 -42.06786 -62.72358 39681 ft 470 kts 216°
2026-05-07 22:01 -42.09467 -62.74831 39686 ft 470 kts 216°
2026-05-07 22:01 -42.12165 -62.77326 39685 ft 470 kts 216°
2026-05-07 22:02 -42.14857 -62.79825 39688 ft 469 kts 216°
2026-05-07 22:02 -42.17523 -62.82307 39680 ft 467 kts 216°
2026-05-07 22:03 -42.20197 -62.84803 39680 ft 467 kts 216°
2026-05-07 22:03 -42.22869 -62.87306 39683 ft 467 kts 216°
2026-05-07 22:04 -42.25526 -62.89801 39688 ft 467 kts 216°
2026-05-07 22:04 -42.28200 -62.92320 39689 ft 468 kts 216°
2026-05-07 22:05 -42.30873 -62.94836 39691 ft 468 kts 216°
2026-05-07 22:05 -42.33541 -62.97348 39689 ft 466 kts 216°
2026-05-07 22:06 -42.36195 -62.99842 39695 ft 467 kts 216°
2026-05-07 22:06 -42.38869 -63.02358 39698 ft 467 kts 216°
2026-05-07 22:07 -42.41530 -63.04862 39694 ft 467 kts 216°
2026-05-07 22:07 -42.44205 -63.07381 39700 ft 469 kts 216°
2026-05-07 22:08 -42.46887 -63.09906 39699 ft 469 kts 216°
2026-05-07 22:08 -42.49571 -63.12438 39698 ft 469 kts 217°
2026-05-07 22:09 -42.52233 -63.14948 39700 ft 468 kts 217°
2026-05-07 22:09 -42.54903 -63.17468 39700 ft 467 kts 217°
2026-05-07 22:10 -42.57577 -63.19990 39698 ft 467 kts 217°
2026-05-07 22:10 -42.60247 -63.22511 39701 ft 467 kts 217°
2026-05-07 22:11 -42.62903 -63.25019 39706 ft 467 kts 217°
2026-05-07 22:11 -42.65582 -63.27547 39705 ft 467 kts 217°
2026-05-07 22:12 -42.68236 -63.30051 39709 ft 467 kts 217°
2026-05-07 22:12 -42.70914 -63.32582 39702 ft 468 kts 217°
2026-05-07 22:13 -42.73594 -63.35113 39705 ft 467 kts 217°
2026-05-07 22:13 -42.76253 -63.37626 39707 ft 468 kts 217°
2026-05-07 22:14 -42.78935 -63.40160 39708 ft 469 kts 217°
2026-05-07 22:14 -42.81611 -63.42690 39705 ft 467 kts 217°
2026-05-07 22:15 -42.84288 -63.45220 39707 ft 469 kts 217°
2026-05-07 22:15 -42.86954 -63.47743 39708 ft 469 kts 217°
2026-05-07 22:16 -42.89639 -63.50283 39707 ft 469 kts 217°
2026-05-07 22:16 -42.92323 -63.52819 39709 ft 468 kts 217°
2026-05-07 22:17 -42.95003 -63.55349 39711 ft 468 kts 217°
2026-05-07 22:17 -42.97670 -63.57868 39715 ft 468 kts 217°
2026-05-07 22:18 -43.01698 -63.61667 39717 ft 469 kts 217°
2026-05-07 22:19 -43.04385 -63.64205 39717 ft 468 kts 217°
2026-05-07 22:19 -43.07057 -63.66727 39722 ft 469 kts 217°
2026-05-07 22:20 -43.09747 -63.69269 39722 ft 469 kts 218°
2026-05-07 22:20 -43.12418 -63.71789 39725 ft 469 kts 218°
2026-05-07 22:21 -43.15116 -63.74338 39724 ft 470 kts 217°
2026-05-07 22:21 -43.17811 -63.76883 39727 ft 470 kts 217°
2026-05-07 22:22 -43.20489 -63.79411 39730 ft 471 kts 218°
2026-05-07 22:22 -43.23196 -63.81971 39728 ft 471 kts 218°
2026-05-07 22:23 -43.25897 -63.84526 39726 ft 471 kts 217°
2026-05-07 22:23 -43.28578 -63.87063 39729 ft 472 kts 218°
2026-05-07 22:24 -43.31289 -63.89631 39731 ft 473 kts 218°
2026-05-07 22:24 -43.34002 -63.92200 39727 ft 472 kts 218°
2026-05-07 22:25 -43.36690 -63.94746 39731 ft 471 kts 218°
2026-05-07 22:25 -43.39393 -63.97306 39731 ft 472 kts 218°
2026-05-07 22:26 -43.42085 -63.99858 39733 ft 472 kts 218°
2026-05-07 22:26 -43.44794 -64.02429 39735 ft 472 kts 218°
2026-05-07 22:27 -43.47508 -64.05003 39734 ft 473 kts 218°
2026-05-07 22:27 -43.50204 -64.07561 39733 ft 473 kts 218°
2026-05-07 22:28 -43.52917 -64.10139 39737 ft 474 kts 218°
2026-05-07 22:28 -43.55630 -64.12717 39739 ft 473 kts 218°
2026-05-07 22:29 -43.58342 -64.15300 39740 ft 474 kts 218°
2026-05-07 22:29 -43.61042 -64.17872 39735 ft 473 kts 218°
2026-05-07 22:30 -43.63759 -64.20464 39742 ft 474 kts 218°
2026-05-07 22:30 -43.66473 -64.23058 39740 ft 474 kts 218°
2026-05-07 22:31 -43.69187 -64.25653 39745 ft 475 kts 218°
2026-05-07 22:31 -43.71892 -64.28240 39741 ft 474 kts 218°
2026-05-07 22:32 -43.74607 -64.30846 39742 ft 475 kts 218°
2026-05-07 22:32 -43.77312 -64.33444 39744 ft 475 kts 218°
2026-05-07 22:33 -43.80036 -64.36062 39742 ft 476 kts 218°
2026-05-07 22:33 -43.82296 -64.38237 39741 ft 476 kts 218°
2026-05-07 22:34 -43.85018 -64.40862 39747 ft 476 kts 218°
2026-05-07 22:34 -43.87723 -64.43475 39749 ft 476 kts 218°
2026-05-07 22:35 -43.90448 -64.46110 39748 ft 477 kts 218°
2026-05-07 22:35 -43.93276 -64.48536 39739 ft 482 kts 207°
2026-05-07 22:36 -43.96416 -64.50169 39762 ft 487 kts 201°
2026-05-07 22:36 -43.99777 -64.51042 39766 ft 496 kts 185°